Flag for Mexico Weather past 2 weeks in Ojinaga, Chihuahua, Mexico

Now
77 °F

Sunny.


Feels Like: 77 °F
Forecast: 59 / 89 °F
Wind: 13 mph from West

Location: Marfa Municipal Airport

Current Time: May 25, 2015 at 4:31:11 PM

Latest Report: May 25, 2015 at 3:35 PM


Visibility: 10 mi

Pressure: 30.03 "Hg

Humidity: 17%

Dew point: 28 °F

Location of OjinagaLocation

Historic Weather in Ojinaga — Graph

°F

Ojinaga temperature yesterday

Maximum temperature yesterday: 79 °F (at 4:15 PM)
Minimum temperature yesterday: 43 °F (at 5:55 AM)
Average temperature yesterday: 62 °F

Past Weeks' High & Low Weather Summary

 TemperatureHumidityPressure
High88 °F (May 19, 3:35 PM)100% (May 13, 5:15 AM)30.28 "Hg (May 13, 5:15 AM)
Low43 °F (May 17, 2:55 AM)10% (May 10, 5:35 PM)29.89 "Hg (May 15, 6:35 PM)
Average67 °F52%30.08 "Hg
* Reported May 10 2:15 PM — May 25 2:35 PM, Ojinaga, Weather by CustomWeather, © 2015

Note: Actual official high and low records may vary slightly from our data, if they occured in-between our weather recording intervals... More about our weather records

Advertising

Ojinaga weather history for previous 24 hours

 ConditionsComfort  
Time TempWeatherWind HumidityBarometerVisibility
2:35 PM
Mon, May 25
75 °FSunny.13 mph18%30.04 "Hg10 mi
2:15 PM75 °FSunny.18 mph16%30.05 "Hg10 mi
1:55 PM75 °FSunny.7 mph18%30.05 "Hg10 mi
1:35 PM75 °FSunny.15 mph18%30.05 "Hg10 mi
1:15 PM73 °FSunny.9 mph19%30.06 "Hg10 mi
12:55 PM73 °FSunny.15 mph17%30.06 "Hg10 mi
12:35 PM73 °FSunny.14 mph17%30.06 "Hg10 mi
12:15 PM73 °FSunny.14 mph19%30.07 "Hg10 mi
11:55 AM73 °FSunny.22 mph17%30.07 "Hg10 mi
11:35 AM73 °FSunny.24 mph17%30.07 "Hg10 mi
11:15 AM72 °FSunny.18 mph19%30.07 "Hg10 mi
10:55 AM72 °FSunny.18 mph20%30.06 "Hg10 mi
10:35 AM72 °FSunny.16 mph20%30.06 "Hg10 mi
10:15 AM70 °FSunny.14 mph21%30.07 "Hg10 mi
9:55 AM70 °FSunny.20 mph21%30.06 "Hg10 mi
9:35 AM70 °FSunny.20 mph21%30.06 "Hg10 mi
9:15 AM70 °FSunny.18 mph23%30.05 "Hg10 mi
8:55 AM68 °FSunny.22 mph24%30.05 "Hg10 mi
8:35 AM66 °FSunny.15 mph28%30.05 "Hg10 mi
8:15 AM66 °FSunny.17 mph30%30.04 "Hg10 mi
7:55 AM64 °FSunny.15 mph32%30.04 "Hg10 mi
7:35 AM63 °FSunny.9 mph34%30.04 "Hg10 mi
6:55 AM57 °FClear.7 mph41%30.03 "Hg10 mi
6:35 AM55 °FClear.12 mph38%30.02 "Hg10 mi
6:15 AM54 °FClear.13 mph41%30.01 "Hg10 mi
5:55 AM55 °FClear.13 mph38%30.00 "Hg10 mi
5:35 AM57 °FClear.15 mph36%30.00 "Hg10 mi
5:15 AM57 °FClear.15 mph36%29.99 "Hg10 mi
4:55 AM54 °FClear.14 mph47%29.98 "Hg10 mi
4:35 AM52 °FClear.8 mph54%29.98 "Hg10 mi
4:15 AMN/AClear.9 mphN/A29.97 "Hg10 mi
3:55 AM48 °FClear.9 mph82%29.96 "Hg10 mi
3:35 AM48 °FClear.No wind87%29.96 "Hg10 mi
3:15 AM48 °FClear.No wind87%29.95 "Hg10 mi
2:55 AM52 °FClear.6 mph77%29.94 "Hg10 mi
2:35 AM52 °FClear.7 mph77%29.94 "Hg10 mi
2:15 AMN/AClear.6 mphN/A29.92 "Hg10 mi
1:55 AMN/AClear.5 mphN/A29.92 "Hg10 mi
1:35 AM59 °FClear.3 mph48%29.93 "Hg10 mi
1:15 AMN/AClear.7 mphN/A29.92 "Hg10 mi
12:55 AM57 °FClear.7 mph48%29.92 "Hg10 mi
12:35 AMN/AClear.9 mphN/A29.92 "Hg10 mi
12:15 AM57 °FClear.12 mph51%29.93 "Hg10 mi
11:55 PM
Sun, May 24
57 °FClear.6 mph51%29.93 "Hg10 mi
11:35 PM55 °FClear.8 mph63%29.94 "Hg10 mi
11:15 PM59 °FClear.7 mph48%29.94 "Hg10 mi
10:55 PMN/AClear.7 mphN/A29.94 "Hg10 mi
10:35 PM59 °FClear.7 mph55%29.95 "Hg10 mi
9:55 PM61 °FClear.8 mph45%29.95 "Hg10 mi
9:35 PM57 °FClear.8 mph51%29.94 "Hg10 mi
9:15 PM57 °FClear.7 mph55%29.94 "Hg10 mi
8:55 PM59 °FClear.8 mph48%29.94 "Hg10 mi
8:35 PM63 °FSunny.5 mph39%29.94 "Hg10 mi
8:15 PM64 °FSunny.6 mph32%29.94 "Hg10 mi
7:55 PM68 °FSunny.5 mph24%29.94 "Hg10 mi
7:35 PMN/ASunny.6 mphN/A29.93 "Hg10 mi
7:15 PM72 °FSunny.5 mph20%29.94 "Hg10 mi
6:55 PM73 °FSunny.9 mph15%29.94 "Hg10 mi
6:35 PM75 °FSunny.12 mph14%29.94 "Hg10 mi
6:15 PM75 °FSunny.14 mph14%29.94 "Hg10 mi
5:55 PM75 °FSunny.12 mph13%29.95 "Hg10 mi
5:35 PM77 °FSunny.15 mph14%29.95 "Hg10 mi
5:15 PM79 °FSunny.15 mph13%29.95 "Hg10 mi
4:55 PM79 °FSunny.13 mph15%29.96 "Hg10 mi
4:35 PM79 °FSunny.14 mph15%29.96 "Hg10 mi
4:15 PM79 °FSunny.15 mph16%29.96 "Hg10 mi
Weather by CustomWeather, © 2015

See weather overviewHow to use our weather pages